www.pogodaiklimat.ru

АРХИВ ПОГОДЫ в Хило

Время (UTC), дата Ветер
(напр.,м/с)
 
Видим.   Явления Облачность Т
(С)
Тd
(С)
f
(%)
Тe
(С)
Тes
(С)
Комфортность

P
(гПа)

Po
(гПа)
Тmin
(С)
Tmax
(С)
R
(мм)
SD
(см)
12:53 18.03 СЗ  16 км    10/10 1500 м  +20.6  +13.9  65  +23  +23  комфорт  1016.3  1015.2         
13:53 18.03 СЗ  16 км    10/10 1470 м  +20.6  +13.9  65  +23  +23  комфорт  1016.4  1015.2         
14:53 18.03 З  16 км    10/10 1140 м  +20.0  +13.9  68  +22  +22  комфорт  1016.9  1015.5         
15:53 18.03 СЗ  14 км    10/10 1200 м  +20.0  +13.9  68  +22  +22  комфорт  1017.6  1016.5         
16:53 18.03 З  16 км    10/10 1350 м  +20.6  +13.9  65  +24  +24  комфорт  1018.5  1017.2  +20.0  +21.1     
17:53 18.03 С  16 км    10/10 1410 м  +22.2  +13.3  57  +25  +25  комфорт  1019.2  1017.9         
18:53 18.03 СВ  16 км    10/10 1500 м  +23.3  +11.7  48  +26  +26  жарко  1019.2  1017.9         
19:53 18.03 СВ  16 км    10/10 1650 м  +24.4  +11.1  43  +26  +26  жарко  1019.1  1017.9         
20:53 18.03 СВ  16 км    ясно  +25.0  +11.7  43  +26  +35  жарко  1018.4  1017.2         
21:53 18.03 СВ  16 км    2/2 750 м  +25.0  +12.2  45  +27  +32  жарко  1017.7  1016.5         
22:53 18.03 С  16 км    2/2 750 м  +25.6  +12.8  45  +27  +33  жарко  1016.9  1015.8  +20.6  +25.6     
23:53 18.03 С  16 км    ясно  +25.0  +13.3  48  +27  +31  жарко  1016.4  1015.2         
00:53 19.03 С  16 км    10/10 1800 м  +23.3  +13.9  55  +27  +27  душно  1016.3  1015.2         
01:53 19.03 С  16 км    н/о  +23.3  +13.9  55  +27  +27  душно  1016.5  1015.2         
02:53 19.03 С  16 км    10/10 1230 м  +22.8  +12.8  53  +26  +26  жарко  1016.9  1015.8         
03:53 19.03 С  16 км    10/10 1440 м  +22.2  +12.2  53  +25  +25  комфорт  1017.6  1016.2         
04:53 19.03 С  16 км    10/10 1350 м  +22.2  +12.8  55  +25  +25  комфорт  1018.0  1016.8  +22.2  +25.6     
05:53 19.03 СВ  16 км    10/10 1650 м  +22.2  +13.3  57  +25  +25  комфорт  1018.7  1017.5         
06:53 19.03 З  16 км    2/2 1800 м  +21.1  +14.4  66  +24  +24  комфорт  1019.2  1017.9         
07:53 19.03   16 км    10/10 1050 м  +21.1  +14.4  66  +24  +24  комфорт  1019.1  1017.9         
08:53 19.03 ЮЗ  13 км  слабый дождь  10/10 1110 м  +19.4  +16.1  81  +21  +21  комфорт  1018.9  1017.5         
09:53 19.03 З  16 км    10/10 1050 м  +19.4  +16.1  81  +21  +21  комфорт  1018.5  1017.2         
10:53 19.03 ЮЗ  16 км    10/10 1650 м  +18.9  +15.0  78  +20  +20    1017.9  1016.8  +18.9  +22.2     
11:53 19.03 ЮЗ  16 км    10/10 1650 м  +18.3  +13.9  76  +19  +19    1017.7  1016.5         
12:53 19.03 ЮЗ  14 км    10/10 1110 м  +18.9  +14.4  75  +20  +20    1017.3  1016.2         
13:53 19.03 З  16 км    10/10 1650 м  +18.9  +14.4  75  +20  +20    1017.3  1016.2         
14:53 19.03 З  16 км    10/10 1800 м  +18.9  +14.4  75  +21  +21  комфорт  1017.8  1016.5         
15:53 19.03 З  16 км    10/10 1800 м  +19.4  +14.4  73  +21  +21  комфорт  1017.9  1016.5         
16:53 19.03 ЮЗ  16 км    5/5 1950 м  +20.0  +14.4  70  +22  +23  комфорт  1018.5  1017.2  +18.3  +20.0     
17:53 19.03 ЮВ  16 км    10/10 1410 м  +22.2  +14.4  61  +25  +25  комфорт  1019.0  1017.9         
18:53 19.03 СВ  16 км    10/10 1650 м  +24.4  +13.3  50  +27  +27  жарко  1018.6  1017.5         
19:53 19.03 В  16 км    10/10 1290 м  +23.9  +14.4  55  +26  +26  жарко  1018.3  1017.2         
20:53 19.03 В  16 км    10/10 1110 м  +23.3  +14.4  57  +27  +27  душно  1017.6  1016.5         
21:53 19.03 ЮВ  16 км    10/10 1110 м  +23.3  +14.4  57  +27  +27  душно  1016.7  1015.5         
22:53 19.03 В  16 км    10/10 1050 м  +23.9  +15.6  60  +27  +27  жарко  1015.8  1014.5  +20.0  +24.4     
23:53 19.03 ЮВ  16 км    10/10 1230 м  +23.9  +14.4  55  +26  +26  жарко  1015.3  1014.1         
00:53 20.03 СЗ  16 км    10/10 1200 м  +22.8  +15.0  61  +27  +27  душно  1015.2  1013.8         
01:53 20.03 Ю  16 км    10/10 1260 м  +22.8  +13.3  55  +26  +26  жарко  1015.5  1014.1         
02:53 20.03   16 км    10/10 1290 м  +22.8  +15.0  61  +27  +27  душно  1015.8  1014.5         
03:53 20.03 З  16 км    10/10 1410 м  +21.7  +15.0  66  +25  +25  комфорт  1016.6  1015.2         
04:53 20.03 ЮЗ  16 км    10/10 1410 м  +21.1  +15.0  68  +24  +24  комфорт  1017.2  1015.8  +21.1  +23.9     
05:53 20.03 ЮЗ  16 км    10/10 990 м  +21.1  +15.0  68  +24  +24  комфорт  1017.8  1016.5         
06:53 20.03 З  16 км    10/10 1170 м  +21.1  +15.0  68  +24  +24  комфорт  1018.7  1017.5         
07:53 20.03 ЮЗ  16 км    10/10 1470 м  +20.6  +15.6  73  +24  +24  комфорт  1018.9  1017.5         
08:53 20.03 ЮЗ  16 км    10/10 1500 м  +20.6  +15.6  73  +24  +24  комфорт  1018.7  1017.5         
09:53 20.03 ЮЗ  16 км    10/10 1080 м  +20.6  +15.0  70  +24  +24  комфорт  1018.3  1017.2         
10:53 20.03 ЮЗ  16 км    10/10 1650 м  +20.0  +13.9  68  +22  +22  комфорт  1017.6  1016.5  +20.0  +21.1     
11:53 20.03 ЮЗ  16 км    10/10 1140 м  +20.0  +13.3  65  +22  +22  комфорт  1017.1  1015.8         

 

Местоположение метеостанции Hilo International Airport: широта 19.7222 долгота -155.0558 высота над уровнем моря 11 м.

В архиве по умолчанию представлена погода в Хило за последние 1-2 суток. Обновление информации о фактической погоде в базе происходит ежечасно! Архивные данные за месяц целиком и за предыдущие месяцы Вы можете получить, выбрав интересующий диапазон дат из раскрывающегося списка и нажав кнопку "Ввод!".

Внимание! Архив погоды МЕТАР в базе сайта в настоящее время начинается c 1 января 2011 г. Нет смысла пытаться выбрать более раннюю дату.

Внимание! Время в таблицах - всемирное. Для получения местного времени необходимо прибавить поправку, которая в Хило равна -10 ч.

Ветер - указаны скорость ветра в м/с и направление, откуда дует ветер: С - северный, СВ - северо-восточный, В - восточный, ЮВ - юго-восточный, Ю - южный, ЮЗ - юго-западный, З - западный, СЗ - северо-западный.
Видимость - горизонтальная дальность видимости в метрах или километрах. При видимости от 1 до 10 км при отсутствии осадков обычно наблюдается дымка, при ухудшении видимости до 1 км и менее - туман. В сухую погоду видимость может ухудшаться дымом, пылью или мглою.
Атмосферные явления - указаны явления, наблюдавшиеся в указанный момент времени.
Облачность - указаны через наклонную черту верхняя и нижняя облачность в баллах и высота нижней границы облаков в метрах. Внимание: облачность, как и прочие метеорологические величины в США измеряются автоматическими метеостанциями. Указанные значения в баллах носят условный характер и показывают процент времени, в течение которого, в среднем, лазерный луч высотомера отражался от облаков обратно.
T - Температура воздуха - температура, измеренная на высоте 2 м над землей.
Td - Температура точки росы - температура, при понижении до которой содержащийся в воздухе водяной пар достигнет насыщения.
f - Относительная влажность воздуха - влажноcть воздуха, измеренная на высоте 2 м над землей.
Te - Эффективная температура - температура, которую ощущает одетый по сезону человек в тени. Характеристика душности погоды. При расчете учитывается влияние влажности воздуха и скорости ветра на теплоощущения человека.
Tes - Эффективная температура на солнце - температура, которую ощущает человек, с поправкой на солнечный нагрев. Характеристика знойности погоды. Зависит от высоты солнца над горизонтом, облачности и скорости ветра. Ночью, в пасмурную погоду, а также при ветре 12 м/с и более поправка равна нулю.
P - Атмосферное давление - приведенное к уровню моря атмосферное давление.
Po - Атмосферное давление - измеренное на уровне метеостанции атмосферное давление.
Tmin - Минимальная температура - минимум температуры воздуха на высоте 2 м над землей.
Tmax - Максимальная температура - максимум температуры воздуха на высоте 2 м над землей.
R - Количество осадков - Количество выпавших осадков за 3 или 6 часов, мм.
SD - Снежный покров - Высота снежного покрова, см.